Starlink 3336

operational
NORAD ID: 50818 Int'l Des: 2022-001 Owner: SPXS Country: US Constellation: starlink
LEOCIRCULAR

About Starlink 3336

Description loading...

Live Position

Loading 3D Globe...

Upcoming Passes

Altitude History

Altitude vs Time

uPlot chart will show altitude changes over time

Two-Line Element Set

1 50818U 22001R 25346.92088242 -.00000520 00000-0 -14575-4 0 9997
2 50818 53.2160 198.6387 0001399 87.6615 272.4537 15.08831972217305
Epoch: Dec 12, 2025 • Age: 25 hours

Current Status

Altitude 555.5 km
Velocity 7.58 km/s
Sub-Earth Point -44.09°S, 75.88°E
Launch Date Jan 6, 2022
Age 3.9 years
Type internet

Technical Details

Classification Payload
Mass 297.00 kg
Dry Mass 275.00 kg
Total Mass 297.00 kg
Length 0.20 m
Diameter 2.80 m
Span 9.00 m
Shape Box + pan
Manufacturer SPXS
Bus Type Starlink
Phase Status In Orbit
Owner/State SPXS/US

Large Constellations

Loading constellations...